Escondido, California, United States (92025)
Lat: 33.12N, Lon: 117.09W
Wx Zone: CAZ050
Local Info
Past Weather Observations for Yesterday

NOTE: This archive is for the closest National Weather Service station to Escondido. Information may differ from the station used for current weather conditions.

Click here for Long-term Archive

Time Weather Temperature Dewpoint Humidity Pressure Winds Precip Visibility
23:53
Mostly Cloudy
Fog And Mist
64°F / 18°C 61°F / 16°C 88% 29.89 in
(1012 mb)
Calm - 6SM
23:49
Mostly Cloudy
Fog And Mist
64°F / 18°C 61°F / 16°C 88% 29.89 in
(1012 mb)
Calm - 6SM
23:37
Partly Cloudy
Fog And Mist
64°F / 18°C 61°F / 16°C 88% 29.89 in
(1012 mb)
Calm - 6SM
22:53
Clear
Fog And Mist
64°F / 18°C 61°F / 16°C 88% 29.89 in
(1012 mb)
ESE 3.5 mph
(ESE 6 kph)
- 6SM
22:33
Partly Cloudy
64°F / 18°C 61°F / 16°C 88% 29.89 in
(1012 mb)
Calm - 7SM
22:01
Mostly Cloudy
66°F / 19°C 61°F / 16°C 83% 29.89 in
(1012 mb)
Calm - 9SM
21:53
Partly Cloudy
66°F / 19°C 61°F / 16°C 83% 29.89 in
(1012 mb)
Calm - 9SM
21:50
Partly Cloudy
66°F / 19°C 61°F / 16°C 83% 29.89 in
(1012 mb)
Calm - 9SM
20:53
Overcast
68°F / 20°C 63°F / 17°C 83% 29.89 in
(1012 mb)
Calm - 10SM
19:53
Mostly Cloudy
66°F / 19°C 63°F / 17°C 88% 29.86 in
(1011 mb)
Calm - 9SM
18:53
Clear
68°F / 20°C 63°F / 17°C 83% 29.86 in
(1011 mb)
Calm - 10SM
18:06
Partly Cloudy
68°F / 20°C 63°F / 17°C 83% 29.86 in
(1011 mb)
Calm - 10SM
17:53
Mostly Cloudy
68°F / 20°C 63°F / 17°C 83% 29.86 in
(1011 mb)
W 3.5 mph
(W 6 kph)
- 10SM
17:16
Mostly Cloudy
68°F / 20°C 63°F / 17°C 83% 29.86 in
(1011 mb)
WNW 3.5 mph
(WNW 6 kph)
- 9SM
16:53
Clear
70°F / 21°C 63°F / 17°C 78% 29.83 in
(1010 mb)
Variable 3.5 mph
(Variable 6 kph)
- 10SM
15:53
Clear
70°F / 21°C 61°F / 16°C 73% 29.83 in
(1010 mb)
Variable 4.6 mph
(Variable 7 kph)
- 10SM
14:53
Clear
72°F / 22°C 61°F / 16°C 69% 29.83 in
(1010 mb)
Variable 6.9 mph
(Variable 11 kph)
- 10SM
13:53
Clear
72°F / 22°C 61°F / 16°C 69% 29.83 in
(1010 mb)
Variable 3.5 mph
(Variable 6 kph)
- 10SM
12:53
Clear
72°F / 22°C 61°F / 16°C 69% 29.86 in
(1011 mb)
W 9.2 mph
(W 15 kph)
- 10SM
11:53
Clear
72°F / 22°C 61°F / 16°C 69% 29.89 in
(1012 mb)
Variable 5.8 mph
(Variable 9 kph)
- 10SM
10:53
Clear
72°F / 22°C 61°F / 16°C 69% 29.89 in
(1012 mb)
W 5.8 mph
(W 9 kph)
- 9SM
09:53
Partly Cloudy
72°F / 22°C 61°F / 16°C 69% 29.92 in
(1013 mb)
Variable 3.5 mph
(Variable 6 kph)
- 8SM
09:45
Partly Cloudy
72°F / 22°C 61°F / 16°C 69% 29.92 in
(1013 mb)
Calm - 7SM
09:37
Mostly Cloudy
70°F / 21°C 61°F / 16°C 73% 29.92 in
(1013 mb)
NW 3.5 mph
(NW 6 kph)
- 7SM
08:53
Overcast
Hazy
66°F / 19°C 61°F / 16°C 83% 29.92 in
(1013 mb)
SSW 3.5 mph
(SSW 6 kph)
- 6SM
07:53
Overcast
Hazy
66°F / 19°C 61°F / 16°C 83% 29.92 in
(1013 mb)
E 4.6 mph
(E 7 kph)
- 6SM
06:53
Overcast
66°F / 19°C 61°F / 16°C 83% 29.92 in
(1013 mb)
Calm - 7SM
05:53
Overcast
66°F / 19°C 61°F / 16°C 83% 29.89 in
(1012 mb)
Calm - 10SM
04:53
Overcast
66°F / 19°C 61°F / 16°C 83% 29.89 in
(1012 mb)
ESE 3.5 mph
(ESE 6 kph)
- 10SM
03:53
Overcast
66°F / 19°C 61°F / 16°C 83% 29.89 in
(1012 mb)
E 4.6 mph
(E 7 kph)
- 10SM
02:53
Overcast
66°F / 19°C 61°F / 16°C 83% 29.89 in
(1012 mb)
NE 3.5 mph
(NE 6 kph)
- 10SM
02:39
Overcast
66°F / 19°C 61°F / 16°C 83% 29.89 in
(1012 mb)
ENE 4.6 mph
(ENE 7 kph)
- 10SM
02:08
Overcast
66°F / 19°C 61°F / 16°C 83% 29.89 in
(1012 mb)
Calm - 10SM
01:53
Overcast
66°F / 19°C 61°F / 16°C 83% 29.92 in
(1013 mb)
NE 3.5 mph
(NE 6 kph)
- 10SM
01:40
Overcast
66°F / 19°C 61°F / 16°C 83% 29.92 in
(1013 mb)
NE 3.5 mph
(NE 6 kph)
- 10SM
00:53
Overcast
66°F / 19°C 61°F / 16°C 83% 29.92 in
(1013 mb)
Calm - 10SM
Time Weather Temperature Dewpoint Humidity Pressure Winds Precip Visibility


Weather for websites

WeatherForYou.com, LLC is not responsible for any damages or problems caused by this service. Current weather conditions are obtained from the closest station including government and personal stations which may have varying degrees of accuracy. Weather forecasts are derived from the NOAA NDFD. Like all things, this site belongs to Jesus Christ... He just trusts me to maintain it. If you have any questions or comments email webmaster@weatherforyou.com

Copyright © 2014, WeatherForYou.com LLC. All rights reserved.